CAPE
0 0 0 39 50 45 0 0 0 0 4 1 5 0 0 0 0 0 0 0 0 0 0 0 0 0 0 0 0 0 0 0 0 0 0 0 0 0 0 0 0 0 0 0
1 0 0 8 41 84 1 3 1 0 0 1 5 0 0 0 0 0 0 3 5 6 2 24 4 0 0 0 0 0 0 0 0 0 0 0 0 0 0 0 0 0 0 0
1 0 0 1 50 56 10 3 0 3 30 3 0 0 0 4 4 3 0 8 9 11 23 31 18 3 4 0 4 0 0 0 0 0 0 0 0 0 0 0 0 0 0 0
4 17 14 1 60 102 80 6 0 2 0 2 1 1 4 0 2 12 20 6 0 0 13 14 6 0 2 13 14 0 0 0 0 0 0 0 0 0 0 0 0 0 0 0
1 12 30 36 68 97 46 0 9 9 6 0 1 9 0 0 0 10 0 2 0 0 6 0 0 21 20 33 10 0 0 0 0 0 0 0 0 0 0 0 0 0 0 0
1 6 33 57 82 48 17 30 5 15 4 4 1 1 0 0 1 0 0 0 0 0 0 1 14 21 14 2 1 2 0 0 0 0 0 0 0 0 0 0 0 0 0 0
0 7 59 81 89 60 0 23 30 9 14 3 3 0 0 0 0 0 1 0 1 0 35 20 10 0 3 12 3 1 1 0 1 0 0 0 0 0 0 0 0 0 0 0
28 45 98 111 130 95 0 0 21 6 7 17 5 6 0 0 0 0 0 0 0 47 43 97 25 4 7 0 0 7 1 0 0 0 0 0 0 0 0 0 0 0 0 0
44 74 109 134 68 76 15 0 3 18 20 0 19 30 37 0 4 5 0 0 0 52 68 9 0 17 10 0 0 3 2 0 0 0 0 0 0 0 0 0 0 0 0 0
99 114 101 51 67 102 38 23 14 13 7 4 31 30 3 16 10 14 2 7 44 12 5 1 2 0 9 12 0 0 0 0 0 0 0 0 0 0 0 0 0 0 0 0
129 129 109 77 116 123 68 19 5 11 0 0 0 1 7 1 1 3 2 1 4 1 2 9 1 0 0 0 0 0 0 0 0 0 0 0 0 0 0 0 0 0 0 0
135 113 89 104 124 145 142 21 10 18 22 0 5 0 0 20 1 1 0 0 0 0 0 1 0 1 0 0 0 0 0 0 0 0 0 0 0 0 0 0 0 0 0 0
107 100 106 122 149 168 108 12 13 13 27 1 0 0 0 0 0 0 12 0 0 0 0 0 0 0 0 0 0 0 0 0 0 0 0 0 0 0 0 0 0 0 0 0
141 138 129 152 202 147 194 48 20 8 4 9 0 0 0 0 0 0 0 0 0 0 0 0 0 0 0 0 0 0 0 0 0 0 0 2 0 0 0 0 0 0 0 0
136 147 154 188 229 191 112 33 15 3 30 12 0 0 0 0 4 1 0 0 0 0 0 0 0 0 0 0 0 0 0 0 3 7 0 3 1 0 0 0 0 0 0 0
267 180 174 173 195 140 24 14 1 2 19 26 34 0 1 0 4 0 0 0 0 0 0 0 0 0 0 0 0 0 0 0 0 0 0 0 0 0 0 0 0 0 0 0
154 166 162 170 167 14 25 0 7 5 15 9 33 0 4 4 0 0 0 0 0 0 0 0 0 0 0 0 0 0 0 0 0 0 0 0 0 0 0 0 0 0 0 0
134 131 125 189 123 43 7 0 0 18 20 3 7 0 6 0 0 0 0 0 0 0 0 0 0 0 0 0 0 0 0 0 0 0 0 0 0 0 0 0 0 0 0 0
108 67 84 32 29 21 2 25 28 38 25 2 0 0 0 0 0 0 0 0 0 0 0 0 0 0 0 0 0 0 0 0 0 0 0 0 0 0 0 0 0 0 0 0
62 38 52 32 0 2 41 1 0 0 2 0 0 0 0 0 0 0 0 0 0 0 0 0 0 0 0 0 0 0 0 0 0 0 0 0 0 0 0 0 0 0 0 0
19 10 10 3 1 3 0 0 0 0 0 0 0 0 0 0 0 0 0 0 0 0 0 0 0 0 0 0 0 0 0 0 0 0 0 0 0 0 0 0 0 0 0 0
0 0 4 7 3 0 0 0 0 0 0 0 0 0 0 0 0 0 0 0 0 0 0 0 0 0 0 1 0 0 0 0 0 0 0 0 0 0 0 0 0 0 0 0
5 2 0 1 0 0 0 0 0 0 0 0 0 0 0 0 0 0 0 0 0 0 0 0 0 0 1 28 3 0 0 0 0 0 0 0 0 0 0 0 0 0 0 0
0 0 0 0 0 0 0 0 0 0 0 0 0 0 0 0 0 0 0 0 0 0 0 0 0 0 0 0 0 0 0 0 0 0 0 0 0 0 0 0 0 0 0 0
0 0 0 0 0 0 0 0 0 0 0 0 0 0 0 0 0 0 0 0 0 0 0 0 0 0 0 0 0 0 0 0 0 0 0 0 0 0 0 0 0 0 0 0
0 0 0 0 0 0 0 0 0 0 0 0 0 0 0 0 0 0 0 0 0 0 0 0 0 0 0 0 0 0 0 0 0 0 0 0 0 0 0 0 0 0 0 0
0 0 0 0 0 0 0 0 0 0 0 0 0 0 0 0 0 0 0 0 0 0 0 0 0 0 0 0 0 0 0 0 0 0 0 0 0 0 0 0 0 0 0 0
CIN
-0 -0 -0 -0 -6 -14 -4 -0 -1 -0 -46 -0 -2 -0 -0 -0 -0 -0 -0 -0 -0 -0 -0 -0 -0 -0 -0 -0 -0 -0 -0 -0 -0 -0 -0 -0 -0 -0 -0 -0 -0 -0 -0 -0
-0 -0 -0 -2 -6 -5 -10 -32 -0 -2 -0 -0 -0 -0 -0 -0 -0 -0 -0 -11 -2 -3 -3 -3 -12 -0 -0 -0 -0 -0 -0 -0 -0 -0 -0 -0 -0 -0 -0 -0 -0 -0 -0 -0
-0 -0 -0 -0 -0 -3 -25 -0 -0 -1 -15 -0 -0 -0 -0 -0 -2 -2 -0 -15 -30 -31 -24 -17 -6 -16 -11 -12 -5 -0 -0 -0 -0 -0 -0 -0 -0 -0 -0 -0 -0 -0 -0 -0
-0 -0 -0 -0 -0 -0 -0 -0 -0 -0 -9 -1 -0 -1 -3 -0 -0 -2 -7 -6 -0 -0 -2 -5 -6 -0 -16 -21 -30 -0 -0 -0 -0 -0 -0 -0 -0 -0 -0 -0 -0 -0 -0 -0
-0 -0 -1 -1 -5 -0 -2 -0 -0 -0 -0 -0 -0 -0 -0 -0 -0 -1 -0 -3 -0 -0 -2 -0 -0 -12 -14 -7 -44 -0 -0 -0 -0 -0 -0 -0 -0 -0 -0 -0 -0 -0 -0 -0
-0 -0 -49 -27 -10 -29 -35 -7 -0 -7 -5 -1 -4 -0 -0 -0 -0 -0 -0 -0 -0 -0 -0 -6 -15 -18 -40 -15 -0 -0 -0 -0 -0 -0 -0 -0 -0 -0 -0 -0 -0 -0 -0 -0
-0 -28 -18 -12 -10 -29 -0 -48 -21 -5 -2 -16 -2 -0 -0 -0 -5 -0 -0 -0 -3 -0 -66 -46 -40 -0 -11 -0 -0 -0 -0 -0 -0 -0 -0 -0 -0 -0 -0 -0 -0 -0 -0 -0
-3 -1 -1 -0 -0 -2 -0 -1 -7 -0 -25 -20 -1 -6 -9 -0 -23 -0 -0 -0 -0 -34 -18 -0 -3 -1 -0 -0 -0 -0 -0 -0 -0 -0 -0 -0 -0 -0 -0 -0 -0 -0 -0 -0
-0 -0 -0 -0 -0 -0 -7 -1 -6 -2 -0 -0 -11 -1 -3 -0 -3 -3 -0 -0 -0 -19 -1 -1 -1 -2 -1 -1 -0 -0 -0 -0 -0 -0 -0 -0 -0 -0 -0 -0 -0 -0 -0 -0
-0 -0 -0 -0 -0 -0 -4 -10 -16 -10 -0 -2 -8 -2 -4 -10 -15 -3 -1 -13 -4 -20 -6 -3 -0 -2 -13 -1 -0 -0 -0 -0 -0 -0 -0 -0 -0 -0 -0 -0 -0 -0 -0 -0
-0 -0 -0 -0 -0 -0 -4 -6 -18 -12 -0 -0 -0 -5 -2 -0 -6 -1 -0 -1 -3 -11 -5 -3 -0 -0 -0 -0 -0 -0 -0 -0 -0 -0 -0 -0 -0 -0 -0 -0 -0 -0 -0 -0
-0 -0 -0 -0 -0 -1 -4 -1 -22 -23 -2 -0 -14 -0 -0 -3 -1 -2 -0 -0 -0 -0 -0 -0 -0 -0 -0 -0 -0 -0 -0 -0 -0 -0 -0 -0 -0 -0 -0 -0 -0 -0 -0 -0
-0 -0 -0 -0 -0 -2 -4 -7 -28 -16 -0 -3 -0 -0 -0 -0 -0 -0 -0 -0 -0 -0 -0 -0 -0 -0 -0 -0 -0 -0 -0 -0 -0 -0 -0 -0 -0 -0 -0 -0 -0 -0 -0 -0
-0 -0 -0 -0 -0 -5 -2 -5 -17 -10 -12 -1 -0 -0 -0 -0 -0 -0 -0 -0 -0 -0 -0 -0 -0 -0 -0 -0 -0 -0 -0 -0 -0 -0 -13 -88 -0 -0 -0 -0 -0 -0 -0 -0
-0 -0 -0 -0 -0 -2 -9 -7 -22 -16 -2 -1 -0 -0 -0 -0 -0 -0 -0 -0 -0 -0 -0 -0 -0 -0 -0 -0 -0 -0 -0 -0 -24 -17 -9 -10 -20 -0 -0 -0 -0 -0 -0 -0
-0 -0 -0 -0 -0 -1 -1 -0 -15 -14 -1 -0 -0 -0 -0 -0 -2 -0 -0 -0 -0 -0 -0 -0 -0 -0 -0 -0 -0 -0 -0 -0 -0 -0 -1 -0 -0 -0 -0 -0 -0 -0 -0 -0
-0 -0 -0 -0 -0 -1 -1 -0 -0 -89 -9 -13 -2 -5 -0 -0 -0 -0 -0 -0 -0 -0 -0 -0 -0 -0 -0 -0 -0 -0 -0 -0 -0 -0 -0 -0 -0 -0 -0 -0 -0 -0 -0 -0
-0 -0 -0 -0 -2 -5 -1 -0 -0 -4 -4 -0 -10 -0 -0 -0 -0 -0 -0 -0 -0 -0 -0 -0 -0 -0 -0 -0 -0 -0 -0 -0 -0 -0 -0 -0 -0 -0 -0 -0 -0 -0 -0 -0
-0 -0 -2 -4 -0 -0 -3 -3 -7 -2 -0 -0 -0 -0 -0 -0 -0 -0 -0 -0 -0 -0 -0 -0 -0 -0 -0 -0 -0 -0 -0 -0 -0 -0 -0 -0 -0 -0 -0 -0 -0 -0 -0 -0
-1 -5 -0 -0 -0 -11 -3 -0 -0 -0 -0 -0 -0 -0 -0 -0 -0 -0 -0 -0 -0 -0 -0 -0 -0 -0 -0 -0 -0 -0 -0 -0 -0 -0 -0 -0 -0 -0 -0 -0 -0 -0 -0 -0
-0 -1 -2 -0 -0 -0 -0 -0 -0 -0 -0 -0 -0 -0 -0 -0 -0 -0 -0 -0 -0 -0 -0 -0 -0 -0 -0 -0 -0 -0 -0 -0 -0 -0 -0 -0 -0 -0 -0 -0 -0 -0 -0 -0
-1 -0 -0 -0 -0 -0 -0 -0 -0 -0 -0 -0 -0 -0 -0 -0 -0 -0 -0 -0 -0 -0 -0 -0 -0 -0 -0 -55 -0 -0 -0 -0 -0 -0 -0 -0 -0 -0 -0 -0 -0 -0 -0 -0
-1 -0 -0 -0 -0 -0 -0 -0 -0 -0 -0 -0 -0 -0 -0 -0 -0 -0 -0 -0 -0 -0 -0 -0 -0 -0 -39 -191 -27 -0 -0 -0 -0 -0 -0 -0 -0 -0 -0 -0 -0 -0 -0 -0
-0 -0 -0 -0 -0 -0 -0 -0 -0 -0 -0 -0 -0 -0 -0 -0 -0 -0 -0 -0 -0 -0 -0 -0 -0 -0 -0 -0 -0 -0 -0 -0 -0 -0 -0 -0 -0 -0 -0 -0 -0 -0 -0 -0
-0 -0 -0 -0 -0 -0 -0 -0 -0 -0 -0 -0 -0 -0 -0 -0 -0 -0 -0 -0 -0 -0 -0 -0 -0 -0 -0 -0 -0 -0 -0 -0 -0 -0 -0 -0 -0 -0 -0 -0 -0 -0 -0 -0
-0 -0 -0 -0 -0 -0 -0 -0 -0 -0 -0 -0 -0 -0 -0 -0 -0 -0 -0 -0 -0 -0 -0 -0 -0 -0 -0 -0 -0 -0 -0 -0 -0 -0 -0 -0 -0 -0 -0 -0 -0 -0 -0 -0
-0 -0 -0 -0 -0 -0 -0 -0 -0 -0 -0 -0 -0 -0 -0 -0 -0 -0 -0 -0 -0 -0 -0 -0 -0 -0 -0 -0 -0 -0 -0 -0 -0 -0 -0 -0 -0 -0 -0 -0 -0 -0 -0 -0
Wind_Speed
8 8 6 6 8 8 10 3 4 2 8 5 4 13 14 11 15 4 15 5 6 7 5 5 2 7 4 8 3 4 8 5 8 15 4 4 2 5 5 5 4 2 5 10
10 9 7 6 7 11 3 3 2 2 5 8 9 10 12 15 9 2 6 7 9 8 10 8 6 8 7 2 6 4 2 2 1 5 3 3 3 3 4 5 4 9 5 8
12 11 9 8 7 7 3 4 4 3 7 4 8 14 17 15 9 16 15 4 4 3 3 5 5 3 5 1 7 1 1 1 5 10 5 4 3 4 5 5 3 6 8 6
13 12 12 10 8 6 5 3 4 2 4 9 13 7 5 19 18 10 1 8 21 17 6 11 14 15 12 8 4 1 5 5 10 9 4 4 4 5 6 5 6 9 8 8
14 14 13 11 9 5 3 4 3 4 1 3 14 10 10 18 8 9 8 14 11 6 14 19 19 12 9 6 4 5 4 5 8 9 10 4 5 7 7 5 4 6 7 10
15 15 14 12 11 7 3 2 3 2 3 4 7 13 17 13 7 9 13 16 8 12 18 13 4 5 4 6 3 5 4 5 5 6 5 2 6 7 9 6 7 8 9 9
17 16 15 14 14 13 3 1 1 3 8 8 7 6 10 17 13 16 3 11 14 12 3 1 2 4 9 12 14 12 4 6 3 3 5 5 7 6 8 14 13 11 4 5
17 16 16 15 15 17 4 3 2 2 4 7 12 14 14 6 7 18 17 18 13 3 3 3 6 4 3 9 15 18 14 7 3 5 10 3 3 4 7 7 7 7 8 6
17 17 16 15 15 18 5 3 3 2 4 5 9 5 7 7 6 6 6 1 5 4 4 4 5 5 1 3 5 12 13 14 7 2 4 8 5 11 6 4 11 5 7 10
18 18 16 16 17 18 8 3 6 3 4 6 4 4 5 5 4 3 2 4 3 5 5 6 4 5 3 4 5 6 6 6 14 6 4 6 5 5 3 5 7 5 10 11
19 18 17 18 18 18 9 3 6 6 4 8 8 7 8 5 4 8 4 1 3 2 8 3 3 3 5 5 5 4 5 6 3 3 4 10 5 0 7 7 1 8 6 7
18 18 18 18 18 18 14 4 4 5 4 5 3 11 9 8 16 3 5 2 4 4 1 2 2 2 1 2 2 3 3 4 6 8 8 6 5 6 3 5 5 3 7 4
19 19 19 18 18 18 14 4 4 3 5 7 10 13 12 13 11 5 6 3 6 5 3 3 2 3 4 4 5 5 3 2 4 3 4 6 8 3 4 6 7 7 6 7
20 20 19 18 18 19 15 5 3 2 2 4 8 6 8 7 6 9 13 12 3 3 3 4 3 3 3 3 2 4 5 2 2 4 3 2 1 7 6 3 4 5 3 6
20 20 20 18 16 16 7 3 4 6 6 4 4 2 5 5 5 12 13 9 6 3 3 2 3 2 1 1 1 3 3 4 3 5 6 4 3 4 5 5 4 7 8 5
19 19 18 17 16 13 3 2 5 8 6 4 5 4 2 5 6 13 9 6 4 3 4 2 1 3 3 2 3 5 7 5 7 6 4 3 3 2 6 7 9 8 7 10
18 17 16 16 17 7 5 6 3 11 8 3 5 5 3 4 3 3 4 4 3 3 2 2 3 3 4 3 5 6 7 7 5 5 4 2 4 5 6 7 9 7 7 10
18 15 14 14 12 6 7 13 14 3 5 1 5 3 3 4 2 2 2 2 2 3 3 1 3 1 1 4 7 13 13 11 8 10 8 9 7 5 9 6 5 7 8 7
17 14 11 3 3 4 3 4 12 6 6 5 2 1 2 3 2 2 2 2 2 2 2 3 4 1 5 9 9 8 9 7 8 7 7 7 7 9 8 8 7 8 9 7
16 6 3 5 6 8 6 4 3 4 3 1 2 2 3 4 2 1 3 1 2 2 4 3 2 5 8 11 11 11 10 8 7 5 7 6 7 8 9 9 8 9 9 7
3 4 4 0 12 3 3 2 2 2 1 3 3 4 5 1 4 3 1 3 1 2 4 4 3 5 6 5 8 8 8 8 8 7 8 7 9 10 8 9 9 8 8 10
8 4 5 2 2 2 4 3 3 3 5 3 5 4 4 1 4 4 1 3 2 3 1 3 4 5 6 5 5 2 4 4 1 3 5 7 7 6 8 9 8 8 8 8
3 1 3 2 1 2 4 4 0 0 3 4 3 2 3 2 4 4 3 3 4 1 3 5 6 5 3 2 3 2 4 4 5 3 5 7 9 8 6 10 6 7 7 7
3 5 3 2 2 1 3 2 4 3 3 4 4 4 3 1 4 2 5 4 2 2 2 7 4 3 3 0 1 4 5 6 7 7 7 7 6 6 7 4 3 9 10 7
3 5 4 2 3 2 2 2 2 3 2 4 4 4 4 3 4 0 3 3 4 6 6 4 3 3 3 3 4 4 5 5 5 4 4 5 5 4 4 6 5 8 11 11
4 7 4 2 4 5 4 4 3 2 2 2 4 3 4 2 4 3 7 4 8 5 3 3 2 3 3 5 4 3 4 3 3 2 2 4 3 2 2 4 7 7 7 10
4 2 1 2 3 4 3 1 3 1 4 2 3 4 7 2 2 4 5 7 5 4 4 5 6 7 5 3 5 5 4 3 3 1 0 0 1 2 3 6 4 6 7 8
Wind_Direction
250 262 286 290 258 214 170 178 196 177 146 167 215 215 212 223 251 304 242 252 264 262 290 292 307 292 323 343 335 200 210 173 233 232 296 205 195 178 147 137 182 158 160 263
247 252 256 264 266 189 154 185 205 231 147 200 218 240 243 245 249 231 228 252 219 252 261 258 214 253 263 239 358 288 139 258 217 323 336 313 189 195 129 85 74 217 189 259
242 245 253 256 252 223 190 155 212 224 196 222 219 229 233 234 229 244 241 290 339 313 260 262 300 274 270 323 202 190 242 200 223 239 216 165 172 215 143 138 133 243 230 232
245 243 236 243 250 238 216 187 209 224 198 213 224 189 242 227 235 229 226 241 238 242 267 275 263 260 276 265 224 216 135 238 261 295 269 178 185 166 167 174 174 190 234 213
238 241 239 234 231 229 257 162 213 179 215 285 200 205 215 240 249 216 225 240 251 279 247 244 267 273 284 265 333 187 164 228 201 221 206 223 206 189 188 211 214 254 228 245
235 235 233 235 225 189 220 190 232 162 208 202 204 208 220 242 202 243 240 237 254 249 253 258 267 269 253 247 149 298 149 160 151 215 235 298 308 210 199 186 194 193 232 235
233 236 231 228 222 203 175 142 279 194 243 216 222 259 225 243 229 242 238 220 233 239 125 168 258 264 253 253 245 217 221 173 202 179 147 227 231 207 221 238 251 228 244 170
232 237 233 227 226 223 192 186 194 255 264 216 229 232 227 254 251 246 246 247 254 148 119 275 246 226 237 237 232 222 215 201 203 187 201 283 279 206 188 183 243 195 229 178
228 233 233 228 229 234 211 195 160 191 298 232 246 242 229 230 234 255 250 212 167 147 193 208 219 218 302 257 279 209 211 229 214 168 207 219 226 218 231 123 256 228 159 156
222 224 228 228 230 229 215 193 179 144 243 237 291 222 215 196 161 249 339 142 200 164 194 218 210 237 155 243 259 178 182 204 215 181 221 288 239 220 115 158 242 165 161 162
218 220 224 224 225 222 204 194 186 182 224 258 265 272 260 301 250 222 158 139 198 230 201 202 185 212 209 171 248 271 174 149 156 115 197 254 211 203 194 208 228 170 165 156
215 220 222 221 225 225 206 217 189 185 227 242 247 248 238 236 237 255 191 217 171 175 147 185 187 225 303 315 269 133 239 228 187 179 208 217 192 197 188 167 164 127 143 174
213 218 220 220 226 223 205 186 169 155 246 268 250 249 251 231 214 194 245 261 202 185 181 142 198 267 168 165 226 305 290 166 193 119 236 205 214 230 185 187 145 155 181 176
210 213 217 218 225 215 198 184 189 168 258 238 267 216 228 186 232 230 229 229 152 136 123 185 171 196 176 212 216 193 211 13 198 286 265 220 268 202 202 201 131 128 131 176
204 209 212 214 220 211 198 192 206 197 215 265 278 259 203 194 278 224 214 162 160 145 111 190 202 212 138 259 42 233 190 212 159 231 242 165 202 133 134 155 204 171 156 209
201 206 210 209 213 186 165 237 218 205 199 277 276 316 253 66 264 167 135 116 112 131 143 199 235 237 124 179 252 251 231 214 191 224 218 216 246 285 191 196 218 215 208 208
199 204 207 210 188 179 205 195 206 175 148 226 254 244 185 129 350 41 52 41 82 107 133 180 181 248 146 163 213 238 233 239 241 209 163 233 234 228 213 214 240 230 221 226
195 200 203 199 196 228 239 249 273 272 152 183 255 250 125 142 76 76 27 66 28 10 139 92 196 318 139 257 229 234 245 244 245 246 214 222 241 233 246 226 220 215 226 207
183 184 182 164 212 221 240 218 237 200 223 218 172 208 144 119 103 110 55 100 73 273 143 229 96 247 230 228 230 243 243 206 229 248 250 246 227 243 243 244 228 217 235 204
161 131 157 214 203 214 142 76 179 200 186 238 242 168 165 119 123 142 104 21 138 156 239 101 155 251 251 252 239 247 251 226 230 256 274 256 252 246 249 230 225 214 221 197
145 176 226 351 92 88 193 150 127 127 89 209 193 189 142 216 116 120 116 169 206 103 262 138 249 260 248 249 251 248 246 218 223 226 263 275 251 253 244 249 228 218 200 191
181 151 142 154 137 158 142 201 182 188 175 183 163 169 132 106 103 100 282 116 46 227 123 85 264 257 273 301 291 51 356 345 262 238 282 287 283 281 257 244 236 204 196 148
145 86 119 178 205 100 177 176 205 55 198 193 144 84 130 99 59 62 92 94 212 62 57 231 229 253 279 302 342 357 40 355 296 316 321 338 327 318 280 255 229 164 151 149
160 146 71 83 340 201 219 186 157 214 151 121 111 80 96 128 65 153 97 234 98 19 236 232 243 252 230 294 16 5 346 344 334 342 346 340 331 326 319 324 156 150 148 130
63 62 78 70 250 330 314 265 76 26 109 83 65 52 78 30 86 75 106 72 246 215 231 235 304 325 327 326 322 321 313 311 322 330 330 327 346 355 11 14 43 114 119 126
52 40 52 341 51 331 2 1 5 338 78 60 56 94 70 233 145 135 209 191 219 236 225 247 260 254 249 266 284 293 283 293 286 299 319 332 359 38 28 47 65 66 100 115
45 326 114 153 134 186 240 209 250 292 62 128 117 139 200 124 164 221 195 210 203 202 228 220 199 211 222 216 256 256 244 222 212 210 240 224 92 67 75 81 60 85 85 92